Meteo Giornale » Osservazioni meteo Stati Uniti (USA) » Orangeburg
ore: 20:53 - Osservazioni Meteo Orangeburg
Lat. 33° 27' N Lon. 80° 51' W Alt. 60 metri s.l.m.
28 °C
Sereno
Temp. 24 Ore
23 °C
33 °C
Nord
5.5 Km/h
Dew point 23 °C
Umidità 74 %
Visibilità 10 Km
Il sole sorge alle ore 06:57
Il sole tramonta alle ore 19:50
| Data e Ora | Cielo e Fenomeni | T °C | DP °C | Um. % | Pres. hPa | Vis. km | Vento km/h | |
|---|---|---|---|---|---|---|---|---|
| Oggi h: 20:53 | Sereno | 28 | 23 | 74 | 1018 | 10 | N 5.5 | |
| Oggi h: 19:53 | Sereno | 31 | 22 | 58 | 1018 | 10 | SE 7.4 | |
| Oggi h: 18:53 | Molto Nuvoloso | 32 | 21 | 52 | 1018 | 10 | NE 9.3 | |
| Oggi h: 17:53 | Sereno | 32 | 21 | 52 | 1017 | 10 | N 5.5 | |
| Oggi h: 16:53 | Molto Nuvoloso | 32 | 21 | 52 | 1018 | 10 | N 0 | |
| Oggi h: 15:53 | Molto Nuvoloso | 33 | 21 | 49 | 1018 | 10 | N 0 | |
| Oggi h: 14:53 | Nuvoloso | 33 | 22 | 52 | 1019 | 10 | N 0 | |
| Oggi h: 13:53 | Molto Nuvoloso | 32 | 21 | 52 | 1019 | 10 | N 11.1 | |
| Oggi h: 12:53 | Poco Nuvoloso | 32 | 22 | 55 | 1020 | 10 | N 7.4 | |
| Oggi h: 11:53 | Nuvoloso | 31 | 22 | 58 | 1020 | 10 | E 11.1 | |
| Oggi h: 10:53 | Sereno | 29 | 23 | 70 | 1020 | 10 | NE 11.1 | |
| Oggi h: 09:53 | Sereno | 28 | 23 | 74 | 1020 | 10 | N/NE 9.3 | |
| Oggi h: 08:53 | Poco Nuvoloso | 26 | 24 | 88 | 1020 | 10 | N 0 | |
| Oggi h: 07:53 | Sereno | 24 | 23 | 94 | 1020 | 10 | N 7.4 | |
| Oggi h: 06:53 | Sereno | 23 | 22 | 94 | 1020 | 10 | N 5.5 | |
| Oggi h: 06:02 | Nuvoloso | 23 | 22 | 94 | 1019 | 10 | N 0 | |
| Oggi h: 05:53 | Molto Nuvoloso | 23 | 23 | 100 | 1019 | 10 | N 0 | |
| Oggi h: 05:40 | Coperto | 23 | 23 | 100 | 1019 | 10 | N 0 | |
| Oggi h: 05:29 | Molto Nuvoloso | 23 | 23 | 100 | 1019 | 10 | N 5.5 | |
| Oggi h: 05:12 | Nuvoloso | 23 | 23 | 100 | 1019 | 10 | N 5.5 | |
| Oggi h: 04:53 | Coperto | 23 | 23 | 100 | 1019 | 10 | N 5.5 | |
| Oggi h: 04:34 | Molto Nuvoloso | 23 | 23 | 100 | 1019 | 10 | N 0 | |
| Oggi h: 04:03 | Nuvoloso | 23 | 23 | 100 | 1019 | 10 | N 0 | |
| Oggi h: 03:53 | Molto Nuvoloso | 23 | 23 | 100 | 1019 | 10 | N 0 | |
| Oggi h: 03:42 | Molto Nuvoloso | 23 | 23 | 100 | 1019 | 10 | N 5.5 | |
| Oggi h: 03:33 | Nuvoloso | 23 | 23 | 100 | 1019 | 10 | N 0 | |
| Oggi h: 02:53 | Sereno | 23 | 23 | 100 | 1019 | 10 | N 7.4 | |
| Oggi h: 01:53 | Sereno | 23 | 23 | 100 | 1019 | 10 | N 0 | |
| Oggi h: 00:53 | Sereno | 24 | 23 | 94 | 1020 | 10 | N 0 | |
| Ieri h: 23:53 | Sereno | 25 | 23 | 88 | 1020 | 10 | N 0 | |
| Ieri h: 22:53 | Sereno | 25 | 23 | 88 | 1020 | 10 | N 0 | |
| Ieri h: 21:53 | Sereno | 26 | 23 | 83 | 1020 | 10 | N 0 | |



